Total_Precipitation_Accumulation
0.00 0.00 0.02 0.09 0.26 0.51 0.68 0.45 0.35 0.24 0.23 0.26 0.35 0.34 0.30 0.33 0.33 0.45 0.19 0.05 0.01 0.00 0.01 0.05 0.11 0.12 0.10 0.09 0.10 0.11 0.13 0.12 0.12 0.11 0.11 0.08 0.05 0.03 0.02 0.02 0.02 0.02 0.02 0.03 0.03 0.04 0.03 0.03 0.02
0.00 0.00 0.03 0.09 0.24 0.59 0.75 0.40 0.30 0.27 0.23 0.33 0.38 0.28 0.21 0.24 0.16 0.13 0.10 0.06 0.02 0.01 0.01 0.01 0.08 0.11 0.10 0.10 0.11 0.11 0.11 0.10 0.09 0.09 0.08 0.06 0.04 0.03 0.03 0.02 0.02 0.03 0.03 0.03 0.04 0.04 0.03 0.02 0.02
0.00 0.00 0.02 0.05 0.14 0.36 0.47 0.27 0.25 0.30 0.37 0.52 0.55 0.32 0.25 0.24 0.17 0.09 0.05 0.03 0.02 0.01 0.01 0.03 0.07 0.09 0.09 0.09 0.10 0.10 0.09 0.08 0.07 0.07 0.06 0.04 0.03 0.03 0.03 0.03 0.03 0.04 0.05 0.05 0.05 0.05 0.04 0.02 0.01
0.00 0.01 0.02 0.03 0.08 0.17 0.26 0.18 0.25 0.33 0.56 0.64 0.62 0.42 0.30 0.27 0.20 0.13 0.04 0.01 0.02 0.02 0.02 0.04 0.07 0.09 0.10 0.10 0.10 0.09 0.08 0.07 0.06 0.06 0.05 0.03 0.03 0.04 0.04 0.04 0.04 0.05 0.07 0.07 0.07 0.07 0.06 0.04 0.02
0.00 0.01 0.02 0.02 0.04 0.09 0.12 0.10 0.17 0.27 0.47 0.62 0.57 0.54 0.45 0.41 0.29 0.15 0.04 0.02 0.01 0.02 0.02 0.04 0.09 0.11 0.12 0.11 0.12 0.11 0.09 0.08 0.07 0.07 0.05 0.04 0.04 0.05 0.05 0.07 0.07 0.07 0.09 0.10 0.09 0.09 0.09 0.08 0.06
0.00 0.01 0.01 0.01 0.03 0.06 0.08 0.09 0.19 0.35 0.52 0.64 0.69 0.68 0.54 0.35 0.22 0.12 0.06 0.03 0.03 0.03 0.03 0.05 0.10 0.13 0.14 0.14 0.14 0.13 0.11 0.10 0.09 0.08 0.06 0.06 0.06 0.07 0.08 0.10 0.11 0.11 0.11 0.10 0.10 0.09 0.09 0.09 0.09
0.00 0.00 0.00 0.00 0.01 0.03 0.07 0.12 0.23 0.37 0.46 0.63 0.88 0.82 0.51 0.36 0.23 0.15 0.11 0.07 0.08 0.05 0.05 0.06 0.08 0.11 0.14 0.17 0.17 0.15 0.13 0.12 0.11 0.09 0.07 0.06 0.06 0.07 0.08 0.11 0.13 0.14 0.15 0.13 0.12 0.12 0.12 0.13 0.12
0.00 0.00 0.00 0.00 0.00 0.02 0.07 0.13 0.24 0.36 0.62 0.80 0.77 0.71 0.64 0.41 0.33 0.29 0.20 0.15 0.13 0.11 0.09 0.08 0.11 0.18 0.19 0.18 0.18 0.18 0.16 0.14 0.11 0.09 0.07 0.07 0.07 0.11 0.15 0.15 0.17 0.21 0.23 0.22 0.22 0.23 0.24 0.24 0.21
0.00 0.00 0.00 0.00 0.00 0.03 0.10 0.19 0.26 0.32 0.51 0.64 0.68 0.62 0.45 0.34 0.41 0.42 0.31 0.24 0.20 0.15 0.14 0.16 0.21 0.24 0.29 0.29 0.26 0.27 0.26 0.26 0.22 0.22 0.21 0.19 0.25 0.33 0.45 0.42 0.47 0.45 0.45 0.47 0.46 0.47 0.49 0.47 0.33
0.00 0.00 0.00 0.00 0.00 0.03 0.09 0.18 0.30 0.36 0.62 0.89 0.94 0.96 0.60 0.55 0.56 0.52 0.41 0.32 0.28 0.28 0.35 0.33 0.32 0.30 0.31 0.34 0.50 0.59 0.59 0.65 0.60 0.65 0.63 0.61 0.62 0.59 0.56 0.70 0.79 0.85 0.96 0.95 0.95 1.07 0.93 0.68 0.48
0.00 0.00 0.00 0.00 0.00 0.01 0.04 0.09 0.13 0.31 0.69 1.05 1.01 0.99 0.80 0.73 0.72 0.68 0.62 0.57 0.49 0.49 0.48 0.40 0.41 0.46 0.53 0.66 0.72 0.80 0.89 1.02 1.11 1.16 1.14 1.20 1.05 0.89 0.83 1.08 1.22 1.20 1.21 1.11 1.37 1.57 1.16 1.05 1.07
0.00 0.00 0.00 0.00 0.00 0.01 0.03 0.10 0.19 0.33 0.74 0.98 0.83 0.70 0.69 0.80 0.93 0.94 0.98 0.93 0.92 0.78 0.71 0.69 0.67 0.72 0.77 0.83 0.82 0.86 0.87 0.97 1.06 1.15 1.24 1.39 1.41 1.29 1.30 1.43 1.31 1.27 1.31 1.48 1.57 1.69 1.50 1.39 1.36
0.00 0.00 0.00 0.00 0.00 0.01 0.04 0.14 0.26 0.38 0.64 0.60 0.49 0.53 0.85 1.06 1.17 1.26 1.28 1.25 1.18 1.24 1.25 1.23 1.13 1.08 1.03 0.94 0.86 0.83 0.82 0.78 0.77 0.87 1.11 1.29 1.39 1.45 1.55 1.38 1.22 1.08 1.36 1.64 1.68 1.54 1.62 1.61 1.68
0.00 0.00 0.01 0.02 0.01 0.02 0.04 0.09 0.31 0.41 0.53 0.58 0.54 0.70 1.09 1.50 1.53 1.50 1.55 1.70 1.67 1.69 1.75 1.65 1.62 1.54 1.34 1.09 0.94 0.87 0.76 0.77 0.80 0.86 0.98 1.15 1.26 1.34 1.39 1.33 1.22 1.17 1.34 1.53 1.57 1.54 1.72 1.77 1.72
0.00 0.03 0.10 0.08 0.04 0.03 0.05 0.17 0.40 0.55 0.57 0.74 0.78 0.92 1.29 1.64 1.59 1.72 1.76 1.90 2.07 2.24 2.35 2.35 2.22 2.06 1.88 1.64 1.30 1.04 0.91 0.87 0.90 0.94 0.87 0.91 1.02 1.05 1.16 1.17 1.15 1.19 1.24 1.29 1.27 1.29 1.48 1.44 1.32
0.01 0.07 0.22 0.17 0.07 0.06 0.11 0.50 0.70 0.61 0.55 0.78 0.97 1.14 1.45 1.76 1.76 1.96 2.06 2.18 2.52 2.81 3.05 3.13 2.89 2.63 2.24 1.86 1.56 1.32 1.20 1.13 1.00 0.91 0.79 0.67 0.73 0.80 0.87 0.85 0.89 0.94 1.00 1.01 0.97 1.00 1.11 1.17 1.25
0.03 0.07 0.18 0.18 0.12 0.10 0.17 0.61 0.65 0.40 0.52 0.76 1.04 1.31 1.47 1.58 1.84 2.17 2.38 2.67 3.25 3.91 4.22 3.95 3.39 3.01 2.42 1.84 1.51 1.42 1.42 1.32 1.14 1.02 0.87 0.71 0.67 0.71 0.76 0.74 0.74 0.71 0.74 0.76 0.73 0.80 0.90 0.96 1.02
0.03 0.06 0.13 0.20 0.15 0.19 0.28 0.39 0.50 0.51 0.67 0.86 1.03 1.15 1.33 1.45 1.69 2.05 2.33 2.73 3.46 4.31 4.83 4.59 3.82 3.09 2.43 1.99 1.69 1.48 1.40 1.25 1.08 0.98 0.86 0.71 0.62 0.61 0.60 0.58 0.54 0.51 0.52 0.55 0.59 0.69 0.78 0.80 0.85
0.03 0.06 0.13 0.20 0.15 0.22 0.30 0.40 0.54 0.67 0.88 0.91 0.92 0.92 1.05 1.31 1.55 1.82 2.18 2.62 3.06 3.49 3.79 3.68 2.97 2.40 1.98 1.60 1.18 0.98 0.93 0.82 0.73 0.70 0.65 0.61 0.56 0.52 0.47 0.41 0.40 0.37 0.36 0.39 0.41 0.48 0.56 0.59 0.67
0.04 0.07 0.12 0.17 0.13 0.12 0.23 0.48 0.60 0.68 0.83 0.79 0.78 0.68 0.77 1.18 1.58 1.93 2.29 2.51 2.35 2.32 2.31 1.79 1.46 1.19 0.99 0.84 0.61 0.47 0.40 0.37 0.35 0.35 0.35 0.33 0.37 0.40 0.39 0.37 0.36 0.35 0.34 0.34 0.36 0.42 0.45 0.47 0.54
0.07 0.09 0.09 0.15 0.16 0.19 0.32 0.61 0.75 0.68 0.65 0.56 0.57 0.65 1.03 1.49 1.80 2.09 2.03 1.77 1.60 1.47 1.28 0.93 0.72 0.69 0.59 0.48 0.33 0.26 0.22 0.21 0.21 0.22 0.22 0.22 0.23 0.26 0.29 0.33 0.36 0.35 0.31 0.30 0.32 0.34 0.35 0.36 0.38
0.07 0.06 0.04 0.04 0.11 0.31 0.44 0.83 0.93 0.79 0.69 0.47 0.51 0.83 1.35 1.62 1.83 1.70 1.17 0.81 0.75 0.72 0.70 0.74 0.70 0.59 0.43 0.38 0.27 0.19 0.15 0.14 0.14 0.15 0.15 0.17 0.16 0.16 0.18 0.24 0.29 0.30 0.31 0.31 0.25 0.26 0.31 0.32 0.28
0.04 0.03 0.03 0.05 0.13 0.32 0.54 0.93 1.08 0.82 0.64 0.42 0.35 0.47 0.84 1.06 0.94 0.64 0.40 0.31 0.34 0.44 0.59 0.81 0.81 0.59 0.41 0.35 0.30 0.26 0.23 0.20 0.18 0.18 0.19 0.20 0.20 0.20 0.17 0.17 0.22 0.27 0.33 0.38 0.34 0.32 0.30 0.29 0.26
0.03 0.04 0.10 0.19 0.32 0.67 0.68 0.76 0.92 0.74 0.59 0.43 0.26 0.32 0.55 0.56 0.36 0.25 0.24 0.30 0.35 0.38 0.43 0.50 0.58 0.64 0.57 0.51 0.42 0.38 0.37 0.35 0.30 0.27 0.26 0.26 0.26 0.29 0.27 0.27 0.30 0.33 0.33 0.34 0.36 0.39 0.38 0.36 0.33
0.03 0.04 0.25 0.58 0.80 0.82 0.52 0.63 0.82 0.51 0.37 0.27 0.15 0.13 0.15 0.16 0.18 0.22 0.26 0.30 0.28 0.24 0.21 0.21 0.24 0.34 0.40 0.44 0.47 0.45 0.45 0.41 0.35 0.30 0.25 0.27 0.26 0.27 0.29 0.29 0.33 0.37 0.37 0.34 0.32 0.33 0.39 0.45 0.45
0.03 0.03 0.08 0.17 0.24 0.32 0.41 0.72 0.75 0.44 0.21 0.09 0.04 0.03 0.03 0.03 0.05 0.08 0.11 0.10 0.10 0.11 0.12 0.11 0.10 0.11 0.14 0.17 0.22 0.26 0.32 0.29 0.28 0.32 0.25 0.26 0.29 0.29 0.27 0.25 0.25 0.28 0.31 0.32 0.30 0.26 0.27 0.34 0.43
0.02 0.02 0.02 0.03 0.06 0.20 0.49 0.69 0.50 0.26 0.14 0.05 0.03 0.02 0.01 0.01 0.01 0.02 0.03 0.04 0.04 0.05 0.07 0.07 0.06 0.06 0.06 0.07 0.08 0.09 0.14 0.18 0.19 0.20 0.17 0.18 0.24 0.26 0.24 0.22 0.20 0.20 0.23 0.26 0.28 0.26 0.27 0.27 0.29
0.02 0.02 0.02 0.03 0.07 0.15 0.36 0.72 0.74 0.37 0.19 0.07 0.03 0.02 0.02 0.01 0.01 0.01 0.01 0.01 0.02 0.02 0.04 0.05 0.05 0.05 0.05 0.05 0.04 0.04 0.07 0.10 0.12 0.12 0.13 0.16 0.19 0.21 0.20 0.17 0.14 0.14 0.15 0.17 0.22 0.25 0.28 0.33 0.36
0.04 0.02 0.03 0.04 0.05 0.09 0.24 0.40 0.35 0.26 0.15 0.06 0.02 0.00 0.00 0.00 0.00 0.01 0.00 0.00 0.01 0.01 0.02 0.02 0.02 0.03 0.03 0.03 0.03 0.03 0.03 0.04 0.07 0.12 0.16 0.19 0.20 0.21 0.20 0.18 0.15 0.12 0.12 0.15 0.18 0.21 0.27 0.33 0.42
0.05 0.04 0.04 0.04 0.05 0.05 0.11 0.18 0.17 0.15 0.12 0.05 0.01 0.00 0.00 0.00 0.00 0.00 0.00 0.00 0.01 0.01 0.01 0.01 0.01 0.01 0.01 0.01 0.02 0.02 0.02 0.02 0.03 0.05 0.09 0.16 0.21 0.22 0.21 0.20 0.17 0.12 0.10 0.12 0.14 0.16 0.21 0.29 0.39